[[{"header":{"parameterUnit":"m.s-1","parameterCategory":1,"la1":30.2991,"la2":30.254,"lo1":-89.0895,"lo2":-89.0444,"dy":0.0017,"dx":0.0017,"nx":28,"ny":28,"refTime":"2025-06-06T03:00:00:Z","depth":0,"parameterNumber":2,"parameterNumberName":"U-component_of_WINDS"},"data":[0,0,0,0,0,0,0,0,0,0,0,0,0,0,0,0,0,0,0,0,0,0,0,0,0,0,0,0,0,0,0,0,0,0,0,0,0,0,0,0,0,0,0,0,0,0,0,0,0,0,0,0,0,0,0,0,0,0,1.8555,1.8556,0,1.8655,1.8656,1.8657,1.8734,1.8735,1.8736,1.8737,1.8843,1.8845,1.8847,0,0,0,0,0,0,0,0,0,0,0,0,0,1.8437,1.8438,1.8555,1.8556,1.8558,1.8655,1.8656,1.8658,1.8734,1.8735,1.8736,1.8737,1.8842,1.8845,1.8847,0,0,0,0,0,0,0,0,0,0,0,0,0,1.8507,1.8439,1.8555,1.8608,1.8613,1.8654,1.8656,1.8658,1.8734,1.8735,1.8736,1.8737,1.8841,1.8844,1.8848,1.8846,0,0,1.8858,1.8859,0,0,0,0,0,0,0,0,1.8503,1.8512,1.8599,1.8604,1.8611,1.8683,1.8653,1.8721,1.8734,1.8688,1.8737,1.8738,1.8789,1.8797,1.8813,1.8851,1.8855,1.8858,1.886,1.8861,1.8862,0,0,0,0,0,0,0,1.8498,1.8508,1.8595,1.86,1.8607,1.8628,1.8639,1.8667,1.8732,1.8692,1.8698,1.8709,1.8793,1.881,1.8816,1.8857,1.8858,1.8861,1.8863,1.8864,1.89,1.89,0,0,0,0,0,0,1.8484,1.8503,1.8592,1.8598,1.8558,1.8629,1.8642,1.8659,1.8731,1.8744,1.8708,1.8712,1.8804,1.8812,1.882,1.8824,1.8861,1.8864,1.8866,1.8901,1.89,1.8899,0,0,0,0,0,0,1.8482,1.8492,1.8588,1.8552,1.8566,1.863,1.8649,1.866,1.8678,1.8743,1.8755,1.8713,1.8805,1.8816,1.8839,1.8829,1.8866,1.8869,1.8903,1.8901,1.89,1.8831,0,0,0,0,0,0,1.8478,1.849,1.8489,1.8551,1.8567,1.8603,1.8648,1.8661,1.8682,1.8689,1.8751,1.8763,1.8807,1.8834,1.8842,1.8834,1.8871,1.8904,1.8902,1.89,1.8834,1.8827,1.8821,0,0,0,0,0,1.8473,1.8466,1.8488,1.8498,1.8567,1.8602,1.8611,1.8661,1.8681,1.8681,1.8724,1.8761,1.8828,1.8836,1.8846,1.8838,1.8905,1.8902,1.89,1.8837,1.8829,1.8821,0,0,0,0,0,0,1.8401,1.8475,1.8501,1.8513,1.855,1.8615,1.8616,1.865,1.8684,1.8688,1.875,1.8764,1.8781,1.8812,1.8818,1.8842,1.8872,1.8871,1.882,1.8812,1.8806,1.8798,1.8874,0,0,0,0,0,1.8386,1.8407,1.8471,1.8476,1.8494,1.8551,1.8569,1.8604,1.8646,1.8662,1.8707,1.8747,1.8778,1.8797,1.8829,1.8839,1.8855,1.884,1.8833,1.8827,1.8826,1.8836,1.883,1.8892,1.8892,1.8892,0,0,1.8357,1.84,1.8409,1.8463,1.8496,1.8518,1.8564,1.8585,1.8603,1.8666,1.8691,1.8725,1.8774,1.8791,1.8801,1.8818,1.8813,1.8824,1.8819,1.8822,1.8833,1.8827,1.8822,1.8891,1.8891,1.8891,0,0,1.8314,1.8348,1.8356,1.8388,1.8438,1.8477,1.8479,1.8538,1.8563,1.8588,1.8637,1.8659,1.8711,1.8744,1.8768,1.874,1.8776,1.8749,1.8714,1.8723,1.8718,1.8714,1.8705,1.8701,1.8747,1.8747,1.8747,0,1.8271,1.8304,1.8356,1.8375,1.8397,1.8455,1.8465,1.8494,1.8552,1.8567,1.8585,1.8652,1.8689,1.8716,1.8709,1.8726,1.8731,1.8742,1.8714,1.8711,1.8708,1.87,1.8696,1.8744,1.8744,1.8745,1.8745,0,1.825,1.8272,1.8273,1.8327,1.835,1.8364,1.842,1.8437,1.8471,1.8508,1.8534,1.8581,1.8624,1.8633,1.8666,1.8665,1.8674,1.8702,1.8734,1.8697,1.8691,1.8688,1.8739,1.874,1.8741,1.8742,0,0,1.8163,1.8246,1.8245,1.8271,1.833,1.835,1.8368,1.8408,1.8423,1.8461,1.8479,1.8521,1.8548,1.8575,1.8613,1.862,1.8596,1.8648,1.865,1.8637,1.8599,1.8578,1.8573,1.862,1.862,1.8619,1.8595,0,1.813,1.8163,1.8211,1.8229,1.8252,1.8307,1.8323,1.8362,1.8398,1.8424,1.8465,1.8494,1.8526,1.8543,1.8553,1.8596,1.8589,1.8599,1.8639,1.8639,1.8624,1.857,1.8547,1.8522,1.8593,1.8593,1.8592,0,1.8095,1.813,1.8149,1.8209,1.822,1.8233,1.8275,1.8299,1.8345,1.8371,1.8402,1.8442,1.8466,1.8494,1.8529,1.8534,1.8554,1.8578,1.8578,1.8584,1.8614,1.8575,1.8515,1.8512,1.8589,1.8589,1.8589,0,1.8031,1.8083,1.8102,1.8122,1.8191,1.8199,1.8228,1.8276,1.8298,1.8336,1.8351,1.8391,1.8413,1.8444,1.8496,1.8511,1.8525,1.8557,1.8549,1.8547,1.8549,1.8548,1.8492,1.856,1.856,1.8561,1.8561,0,1.7989,1.7999,1.8074,1.8085,1.8099,1.8155,1.8168,1.8203,1.8245,1.8266,1.8317,1.8336,1.8402,1.843,1.847,1.8493,1.8503,1.8526,1.8536,1.8521,1.8518,1.8535,1.8538,1.856,1.856,1.856,1.856,0,1.7919,1.7969,1.7994,1.8058,1.8074,1.8081,1.8137,1.8151,1.8191,1.8216,1.8226,1.8288,1.8323,1.8377,1.8428,1.8456,1.8472,1.849,1.8456,1.8463,1.8451,1.8452,1.8404,1.8401,1.847,1.8469,1.8469,0,1.7889,1.7898,1.7963,1.798,1.8007,1.8034,1.8057,1.8114,1.8135,1.819,1.8198,1.8237,1.8271,1.8324,1.8375,1.8415,1.8434,1.8415,1.8441,1.8426,1.8435,1.8434,1.8436,1.8409,1.8408,1.8407,1.8406,0,1.7831,1.7856,1.7886,1.7925,1.795,1.7984,1.802,1.8032,1.8097,1.8119,1.8155,1.8181,1.8233,1.8272,1.8319,1.8352,1.839,1.8398,1.8398,1.8383,1.8363,1.8374,1.844,1.8398,1.8399,1.84,1.84,1.8401,1.7781,1.7792,1.7839,1.7872,1.7905,1.7938,1.7955,1.7997,1.8027,1.8073,1.8105,1.8139,1.8188,1.8255,1.8286,1.8315,1.8331,1.8331,1.8332,1.8331,1.8325,1.8358,1.8323,1.8324,1.8324,1.8324,1.8324,0,1.7726,1.7759,1.7788,1.7838,1.7863,1.7896,1.7939,1.7959,1.7988,1.8029,1.8061,1.8103,1.8141,1.8195,1.8238,1.825,1.8269,1.826,1.826,1.8267,1.8308,1.8304,1.8244,1.8244,1.8244,1.8244,1.8244,1.8244,1.77,1.7721,1.7751,1.779,1.7825,1.7857,1.7879,1.7911,1.7944,1.7988,1.8019,1.8054,1.8101,1.8148,1.8185,1.82,1.8213,1.8198,1.8219,1.8256,1.8264,1.8271,1.8267,1.8201,1.8201,1.8176,1.8176,1.8175]},{"header":{"parameterUnit":"m.s-1","parameterCategory":1,"la1":30.2991,"la2":30.254,"lo1":-89.0895,"lo2":-89.0444,"dy":0.0017,"dx":0.0017,"nx":28,"ny":28,"refTime":"2025-06-06T03:00:00:Z","depth":0,"parameterNumber":3,"parameterNumberName":"V-component_of_WINDS"},"data":[0,0,0,0,0,0,0,0,0,0,0,0,0,0,0,0,0,0,0,0,0,0,0,0,0,0,0,0,0,0,0,0,0,0,0,0,0,0,0,0,0,0,0,0,0,0,0,0,0,0,0,0,0,0,0,0,0,0,3.4447,3.4446,0,3.4392,3.4391,3.4391,3.4346,3.4346,3.4345,3.4345,3.4285,3.4284,3.4283,0,0,0,0,0,0,0,0,0,0,0,0,0,3.4509,3.4508,3.4447,3.4446,3.4445,3.4392,3.4391,3.4391,3.4346,3.4346,3.4345,3.4345,3.4286,3.4284,3.4283,0,0,0,0,0,0,0,0,0,0,0,0,0,3.4471,3.4508,3.4447,3.4417,3.4414,3.4392,3.4391,3.439,3.4346,3.4346,3.4345,3.4344,3.4286,3.4284,3.4283,3.4285,0,0,3.4277,3.4276,0,0,0,0,0,0,0,0,3.4473,3.4469,3.4422,3.4419,3.4415,3.4375,3.4391,3.4355,3.4347,3.4372,3.4345,3.4344,3.4315,3.4311,3.4302,3.4282,3.428,3.4277,3.4276,3.4275,3.4275,0,0,0,0,0,0,0,3.4476,3.4471,3.4425,3.4421,3.4417,3.4405,3.4399,3.4384,3.4348,3.437,3.4366,3.4361,3.4313,3.4304,3.4301,3.4279,3.4277,3.4276,3.4274,3.4274,3.4257,3.4257,0,0,0,0,0,0,3.4484,3.4473,3.4427,3.4423,3.4443,3.4405,3.4398,3.4389,3.4348,3.4341,3.4361,3.4359,3.4307,3.4303,3.4298,3.4297,3.4275,3.4274,3.4273,3.4256,3.4257,3.4257,0,0,0,0,0,0,3.4485,3.448,3.4429,3.4447,3.444,3.4404,3.4395,3.4388,3.4379,3.4342,3.4335,3.4359,3.4307,3.4301,3.4289,3.4295,3.4273,3.4271,3.4255,3.4256,3.4257,3.4296,0,0,0,0,0,0,3.4487,3.4481,3.4482,3.4448,3.4439,3.4421,3.4395,3.4387,3.4376,3.4372,3.4337,3.4331,3.4306,3.4292,3.4287,3.4292,3.427,3.4255,3.4256,3.4257,3.4294,3.4298,3.4302,0,0,0,0,0,3.449,3.4495,3.4483,3.4477,3.4441,3.4422,3.4417,3.4389,3.4377,3.4377,3.4353,3.4332,3.4295,3.4291,3.4285,3.429,3.4254,3.4255,3.4257,3.4292,3.4298,3.4302,0,0,0,0,0,0,3.453,3.449,3.4476,3.447,3.445,3.4414,3.4414,3.4395,3.4377,3.4374,3.4339,3.4331,3.4323,3.4305,3.4301,3.4289,3.4272,3.4272,3.4301,3.4305,3.4309,3.4313,3.4268,0,0,0,0,0,3.4539,3.4528,3.4493,3.4492,3.4482,3.445,3.4441,3.4421,3.4398,3.4389,3.4364,3.4342,3.4325,3.4314,3.4297,3.4292,3.4283,3.4292,3.4296,3.4299,3.4299,3.4294,3.4297,3.4262,3.4262,3.4262,0,0,3.4556,3.4532,3.4528,3.4499,3.4481,3.4469,3.4443,3.4432,3.4423,3.4387,3.4374,3.4355,3.4327,3.4319,3.4313,3.4304,3.4307,3.4301,3.4304,3.4302,3.4296,3.4299,3.4302,3.4263,3.4263,3.4262,0,0,3.458,3.4563,3.4559,3.4541,3.4514,3.4493,3.4492,3.446,3.4446,3.4433,3.4405,3.4393,3.4365,3.4346,3.4333,3.4351,3.4329,3.4346,3.4365,3.436,3.4363,3.4365,3.437,3.4372,3.4346,3.4346,3.4347,0,3.4604,3.4587,3.4559,3.4549,3.4537,3.4506,3.45,3.4485,3.4453,3.4445,3.4435,3.4398,3.4378,3.4363,3.4368,3.4359,3.4355,3.4349,3.4365,3.4367,3.4369,3.4372,3.4374,3.4349,3.4348,3.4348,3.4348,0,3.4616,3.4605,3.4605,3.4576,3.4564,3.4557,3.4527,3.4517,3.4499,3.4478,3.4464,3.4439,3.4415,3.441,3.4392,3.4393,3.4387,3.4372,3.4353,3.4375,3.4377,3.4379,3.4351,3.4351,3.435,3.435,0,0,3.4663,3.462,3.462,3.4606,3.4575,3.4565,3.4556,3.4534,3.4526,3.4505,3.4495,3.4473,3.4458,3.4443,3.4422,3.4418,3.4431,3.4402,3.4401,3.4407,3.4429,3.444,3.4442,3.4418,3.4418,3.4418,3.443,0,3.4681,3.4664,3.4639,3.463,3.4618,3.4588,3.458,3.4559,3.454,3.4525,3.4503,3.4487,3.447,3.4461,3.4455,3.4431,3.4435,3.443,3.4407,3.4406,3.4413,3.4444,3.4455,3.4468,3.4432,3.4432,3.4432,0,3.4699,3.4682,3.4672,3.4641,3.4634,3.4628,3.4605,3.4593,3.4568,3.4554,3.4537,3.4515,3.4502,3.4487,3.4468,3.4465,3.4454,3.4441,3.4441,3.4436,3.4419,3.4438,3.4471,3.4473,3.4434,3.4434,3.4434,0,3.4732,3.4706,3.4696,3.4686,3.465,3.4645,3.463,3.4605,3.4593,3.4573,3.4564,3.4543,3.453,3.4513,3.4485,3.4477,3.4468,3.4451,3.4455,3.4455,3.4453,3.4453,3.4483,3.4449,3.4449,3.4449,3.4449,0,3.4754,3.4748,3.471,3.4704,3.4697,3.4668,3.4661,3.4642,3.462,3.4609,3.4582,3.4571,3.4536,3.4521,3.4499,3.4485,3.448,3.4467,3.4461,3.4469,3.447,3.446,3.4457,3.4449,3.4449,3.4449,3.4449,0,3.4789,3.4763,3.475,3.4718,3.4709,3.4705,3.4676,3.4668,3.4648,3.4634,3.4629,3.4596,3.4577,3.4548,3.452,3.4505,3.4494,3.4485,3.4503,3.4499,3.4504,3.4503,3.4527,3.4527,3.4495,3.4495,3.4495,0,3.4803,3.4798,3.4765,3.4757,3.4742,3.4728,3.4716,3.4688,3.4676,3.4647,3.4642,3.4622,3.4603,3.4574,3.4546,3.4524,3.4513,3.4523,3.451,3.4517,3.4511,3.4511,3.451,3.4526,3.4526,3.4527,3.4527,0,3.4831,3.4818,3.4803,3.4783,3.477,3.4753,3.4734,3.4728,3.4694,3.4682,3.4663,3.4649,3.4621,3.46,3.4574,3.4556,3.4535,3.4532,3.4531,3.4538,3.4548,3.4541,3.451,3.4531,3.4531,3.453,3.453,3.453,3.4854,3.4848,3.4824,3.4808,3.4791,3.4774,3.4765,3.4744,3.4728,3.4703,3.4687,3.4669,3.4643,3.4606,3.459,3.4574,3.4565,3.4564,3.4564,3.4564,3.4566,3.4552,3.4569,3.4569,3.4569,3.4569,3.4569,0,3.4879,3.4862,3.4848,3.4823,3.4809,3.4793,3.4771,3.4761,3.4745,3.4724,3.4707,3.4684,3.4664,3.4635,3.4612,3.4605,3.4595,3.4599,3.4599,3.4595,3.4576,3.4578,3.4608,3.4608,3.4608,3.4608,3.4608,3.4608,3.489,3.4879,3.4864,3.4844,3.4827,3.4809,3.4798,3.4782,3.4765,3.4741,3.4725,3.4707,3.4682,3.4657,3.4637,3.4629,3.4621,3.4628,3.4617,3.46,3.4596,3.4593,3.4594,3.4627,3.4627,3.4637,3.4637,3.4637]}]]